Location: Bazugues
(43.4465°N, 0.3432°E)
Time: 09:12:51
(UTC+00:00)

Meteor 1-21 - Pass Details

Date: 12 January 2026
Orbit: 845 x 885 km, 81.2° (Epoch: 17 February)

Event Time Altitude Azimuth Distance (km) Brightness Sun altitude
Rises 17:50:52 0° 173° (S) 3,407 7.5 -11.8°
Reaches altitude 10° 17:53:20 10° 168° (SSE) 2,471 6.7 -12.3°
Maximum altitude 17:58:44 51° 94° (E) 1,060 4.4 -13.2°
Drops below altitude 10° 18:04:08 10° 20° (NNE) 2,476 6.3 -14.1°
Sets 18:06:36 0° 16° (NNE) 3,415 7.0 -14.6°
